QPF
0.01 0.03 0.04 0.05 0.02 0.01 0.00 0.00 0.01 0.03 0.09 0.15 0.09 0.06 0.03 0.01 0.00 0.00 0.00 0.01 0.02 0.04 0.05 0.04 0.03 0.03 0.02 0.01 0.02 0.03 0.05 0.05 0.05 0.04 0.04 0.04 0.03 0.03 0.02 0.02 0.02 0.01 0.01 0.01
0.01 0.02 0.03 0.04 0.04 0.01 0.00 0.00 0.01 0.02 0.08 0.10 0.06 0.05 0.02 0.01 0.00 0.00 0.00 0.01 0.02 0.03 0.06 0.07 0.05 0.04 0.04 0.04 0.03 0.04 0.05 0.04 0.05 0.05 0.04 0.03 0.03 0.03 0.02 0.02 0.03 0.02 0.02 0.01
0.01 0.02 0.03 0.03 0.03 0.02 0.01 0.01 0.02 0.04 0.11 0.09 0.06 0.05 0.02 0.00 0.00 0.00 0.00 0.01 0.01 0.01 0.04 0.06 0.05 0.04 0.05 0.05 0.03 0.03 0.03 0.04 0.04 0.05 0.05 0.04 0.03 0.03 0.03 0.03 0.03 0.02 0.03 0.03
0.01 0.04 0.06 0.03 0.01 0.02 0.03 0.02 0.02 0.04 0.10 0.10 0.07 0.04 0.01 0.00 0.00 0.00 0.00 0.00 0.01 0.01 0.01 0.02 0.03 0.03 0.02 0.03 0.03 0.02 0.02 0.03 0.04 0.04 0.04 0.04 0.04 0.04 0.03 0.03 0.02 0.02 0.02 0.03
0.03 0.06 0.07 0.03 0.02 0.01 0.02 0.02 0.01 0.03 0.07 0.04 0.03 0.02 0.03 0.01 0.00 0.00 0.00 0.00 0.00 0.01 0.01 0.01 0.02 0.03 0.03 0.03 0.03 0.02 0.02 0.03 0.04 0.04 0.04 0.04 0.04 0.03 0.03 0.03 0.02 0.01 0.02 0.02
0.05 0.08 0.12 0.09 0.04 0.02 0.02 0.05 0.03 0.02 0.02 0.02 0.03 0.06 0.08 0.05 0.02 0.00 0.00 0.00 0.00 0.00 0.01 0.01 0.02 0.03 0.05 0.05 0.05 0.06 0.04 0.05 0.06 0.06 0.05 0.05 0.04 0.03 0.03 0.03 0.02 0.01 0.01 0.01
0.06 0.09 0.11 0.07 0.04 0.04 0.07 0.10 0.04 0.01 0.02 0.02 0.02 0.03 0.04 0.02 0.01 0.00 0.00 0.00 0.00 0.00 0.01 0.01 0.02 0.03 0.06 0.06 0.07 0.10 0.08 0.06 0.08 0.08 0.08 0.08 0.07 0.05 0.04 0.03 0.02 0.01 0.01 0.01
0.08 0.12 0.14 0.07 0.05 0.07 0.09 0.06 0.04 0.02 0.01 0.01 0.01 0.01 0.00 0.01 0.00 0.00 0.00 0.00 0.01 0.01 0.01 0.01 0.02 0.04 0.06 0.06 0.06 0.08 0.08 0.08 0.09 0.11 0.10 0.09 0.09 0.06 0.05 0.04 0.03 0.03 0.03 0.03
0.08 0.11 0.09 0.08 0.09 0.07 0.05 0.04 0.03 0.03 0.02 0.01 0.01 0.01 0.01 0.01 0.01 0.01 0.01 0.00 0.01 0.01 0.01 0.02 0.03 0.04 0.04 0.05 0.06 0.07 0.09 0.10 0.11 0.13 0.13 0.11 0.10 0.09 0.07 0.07 0.07 0.06 0.06 0.06
0.08 0.07 0.06 0.07 0.07 0.05 0.07 0.04 0.01 0.02 0.02 0.02 0.02 0.02 0.02 0.02 0.02 0.02 0.02 0.02 0.01 0.01 0.02 0.03 0.04 0.05 0.04 0.05 0.06 0.07 0.09 0.11 0.12 0.13 0.13 0.12 0.13 0.11 0.10 0.09 0.08 0.08 0.07 0.06
0.10 0.10 0.09 0.08 0.04 0.03 0.02 0.01 0.02 0.05 0.04 0.04 0.03 0.03 0.03 0.03 0.04 0.03 0.02 0.02 0.02 0.02 0.03 0.03 0.05 0.06 0.05 0.04 0.05 0.06 0.08 0.09 0.11 0.14 0.15 0.14 0.13 0.12 0.12 0.11 0.10 0.09 0.08 0.07
0.09 0.07 0.07 0.07 0.04 0.02 0.01 0.01 0.01 0.03 0.02 0.02 0.03 0.03 0.03 0.03 0.03 0.03 0.02 0.02 0.02 0.03 0.03 0.04 0.06 0.07 0.07 0.08 0.08 0.08 0.09 0.10 0.13 0.16 0.17 0.16 0.14 0.13 0.12 0.11 0.11 0.10 0.09 0.09
0.05 0.04 0.04 0.04 0.04 0.02 0.01 0.01 0.01 0.01 0.02 0.02 0.02 0.03 0.03 0.02 0.02 0.01 0.02 0.03 0.03 0.02 0.02 0.03 0.04 0.05 0.06 0.09 0.10 0.10 0.10 0.10 0.12 0.13 0.13 0.13 0.13 0.12 0.13 0.14 0.13 0.13 0.15 0.16
0.03 0.04 0.04 0.06 0.07 0.05 0.03 0.01 0.01 0.02 0.03 0.04 0.04 0.04 0.04 0.05 0.04 0.03 0.04 0.04 0.04 0.03 0.03 0.02 0.02 0.04 0.06 0.08 0.10 0.09 0.09 0.08 0.08 0.08 0.08 0.09 0.10 0.10 0.11 0.12 0.11 0.11 0.12 0.12
0.04 0.05 0.05 0.05 0.07 0.06 0.03 0.03 0.03 0.03 0.04 0.05 0.06 0.06 0.06 0.06 0.05 0.03 0.03 0.04 0.05 0.05 0.04 0.04 0.03 0.04 0.06 0.07 0.08 0.09 0.09 0.09 0.09 0.07 0.07 0.07 0.07 0.07 0.08 0.08 0.07 0.07 0.06 0.06
0.04 0.05 0.07 0.07 0.07 0.07 0.04 0.05 0.05 0.04 0.04 0.05 0.06 0.07 0.07 0.07 0.07 0.05 0.04 0.05 0.06 0.05 0.05 0.05 0.04 0.05 0.06 0.06 0.07 0.09 0.10 0.11 0.11 0.10 0.08 0.08 0.07 0.08 0.09 0.09 0.09 0.08 0.07 0.06
0.08 0.09 0.09 0.09 0.08 0.05 0.05 0.07 0.07 0.05 0.05 0.08 0.08 0.07 0.09 0.09 0.07 0.05 0.05 0.05 0.05 0.05 0.05 0.04 0.04 0.04 0.05 0.08 0.08 0.08 0.09 0.09 0.10 0.11 0.10 0.09 0.09 0.11 0.13 0.13 0.12 0.10 0.09 0.09
0.08 0.08 0.09 0.10 0.08 0.05 0.05 0.08 0.07 0.07 0.06 0.09 0.12 0.10 0.09 0.08 0.06 0.04 0.04 0.05 0.06 0.07 0.07 0.06 0.06 0.05 0.05 0.09 0.12 0.12 0.12 0.12 0.12 0.12 0.11 0.10 0.10 0.10 0.10 0.10 0.09 0.09 0.09 0.09
0.06 0.05 0.06 0.06 0.05 0.04 0.05 0.09 0.07 0.06 0.06 0.07 0.11 0.12 0.10 0.08 0.06 0.04 0.04 0.05 0.07 0.07 0.07 0.07 0.07 0.07 0.08 0.09 0.10 0.12 0.12 0.14 0.14 0.13 0.12 0.11 0.11 0.11 0.11 0.10 0.09 0.09 0.08 0.08
0.05 0.04 0.04 0.03 0.03 0.03 0.03 0.05 0.06 0.05 0.05 0.07 0.07 0.07 0.08 0.09 0.08 0.06 0.06 0.05 0.05 0.05 0.04 0.03 0.03 0.05 0.06 0.07 0.08 0.09 0.10 0.11 0.12 0.11 0.11 0.10 0.10 0.11 0.10 0.08 0.07 0.07 0.07 0.06
0.04 0.03 0.03 0.02 0.02 0.02 0.03 0.04 0.06 0.05 0.04 0.05 0.05 0.04 0.04 0.04 0.05 0.05 0.06 0.05 0.05 0.04 0.03 0.02 0.02 0.03 0.05 0.06 0.07 0.07 0.08 0.09 0.09 0.09 0.08 0.07 0.07 0.07 0.06 0.06 0.06 0.06 0.05 0.05
0.04 0.03 0.02 0.02 0.03 0.03 0.03 0.04 0.04 0.04 0.03 0.03 0.04 0.03 0.04 0.05 0.05 0.04 0.04 0.04 0.04 0.03 0.02 0.02 0.03 0.04 0.05 0.05 0.05 0.06 0.08 0.08 0.08 0.08 0.08 0.08 0.09 0.10 0.11 0.11 0.09 0.08 0.07 0.06
0.04 0.02 0.02 0.03 0.04 0.04 0.03 0.03 0.03 0.03 0.02 0.01 0.02 0.01 0.02 0.03 0.04 0.03 0.03 0.04 0.04 0.03 0.02 0.02 0.03 0.04 0.04 0.04 0.05 0.05 0.06 0.06 0.06 0.06 0.07 0.07 0.08 0.08 0.08 0.08 0.07 0.06 0.06 0.05
0.05 0.04 0.04 0.04 0.05 0.04 0.03 0.03 0.04 0.05 0.04 0.04 0.03 0.02 0.01 0.01 0.02 0.02 0.03 0.04 0.04 0.02 0.02 0.03 0.04 0.04 0.05 0.06 0.06 0.05 0.05 0.05 0.04 0.04 0.04 0.05 0.06 0.06 0.06 0.05 0.05 0.04 0.03 0.03
0.07 0.05 0.04 0.04 0.05 0.04 0.03 0.03 0.03 0.03 0.04 0.04 0.05 0.03 0.02 0.01 0.01 0.02 0.02 0.02 0.04 0.03 0.02 0.03 0.04 0.05 0.05 0.07 0.08 0.08 0.07 0.06 0.05 0.05 0.05 0.04 0.04 0.04 0.03 0.03 0.03 0.03 0.03 0.03
0.06 0.06 0.05 0.04 0.04 0.04 0.03 0.03 0.03 0.02 0.03 0.03 0.04 0.05 0.05 0.04 0.03 0.03 0.03 0.03 0.05 0.04 0.03 0.03 0.03 0.03 0.04 0.05 0.05 0.05 0.05 0.04 0.04 0.03 0.04 0.04 0.04 0.03 0.03 0.02 0.03 0.03 0.04 0.04
0.05 0.07 0.08 0.05 0.04 0.03 0.03 0.03 0.05 0.05 0.04 0.04 0.05 0.06 0.06 0.05 0.04 0.03 0.03 0.03 0.04 0.04 0.04 0.03 0.03 0.03 0.03 0.02 0.02 0.02 0.02 0.02 0.02 0.03 0.03 0.04 0.04 0.04 0.04 0.04 0.05 0.06 0.06 0.06
MSLP
998.13 998.40 998.75 999.23 999.84 1000.55 1001.30 1002.00 1002.57 1002.93 1003.06 1002.97 1002.71 1002.36 1002.03 1001.82 1001.81 1002.02 1002.46 1003.10 1003.86 1004.66 1005.43 1006.11 1006.68 1007.12 1007.47 1007.76 1008.02 1008.30 1008.62 1008.98 1009.37 1009.77 1010.17 1010.54 1010.89 1011.21 1011.52 1011.84 1012.18 1012.56 1012.97 1013.42
998.50 998.70 998.92 999.19 999.56 1000.01 1000.52 1001.03 1001.49 1001.84 1002.04 1002.10 1002.02 1001.88 1001.73 1001.65 1001.70 1001.91 1002.29 1002.83 1003.48 1004.18 1004.88 1005.53 1006.12 1006.62 1007.05 1007.43 1007.78 1008.13 1008.49 1008.86 1009.24 1009.61 1009.97 1010.31 1010.62 1010.92 1011.22 1011.53 1011.88 1012.27 1012.70 1013.15
999.21 999.36 999.45 999.54 999.68 999.89 1000.16 1000.48 1000.81 1001.10 1001.33 1001.46 1001.52 1001.51 1001.49 1001.49 1001.57 1001.76 1002.06 1002.49 1003.02 1003.60 1004.22 1004.84 1005.43 1005.98 1006.49 1006.97 1007.42 1007.86 1008.29 1008.70 1009.10 1009.47 1009.82 1010.13 1010.42 1010.69 1010.97 1011.27 1011.60 1011.98 1012.39 1012.84
1000.14 1000.23 1000.22 1000.16 1000.11 1000.11 1000.18 1000.32 1000.51 1000.73 1000.93 1001.10 1001.22 1001.29 1001.34 1001.39 1001.47 1001.61 1001.83 1002.14 1002.54 1003.01 1003.54 1004.10 1004.68 1005.26 1005.84 1006.41 1006.97 1007.50 1008.02 1008.50 1008.95 1009.35 1009.70 1010.01 1010.29 1010.54 1010.80 1011.06 1011.37 1011.71 1012.10 1012.52
1001.07 1001.11 1001.01 1000.84 1000.65 1000.50 1000.42 1000.42 1000.50 1000.64 1000.81 1000.98 1001.13 1001.24 1001.32 1001.38 1001.43 1001.52 1001.64 1001.84 1002.11 1002.46 1002.89 1003.38 1003.93 1004.52 1005.14 1005.78 1006.43 1007.06 1007.66 1008.23 1008.74 1009.20 1009.59 1009.92 1010.20 1010.44 1010.68 1010.92 1011.18 1011.48 1011.82 1012.20
1001.76 1001.75 1001.60 1001.37 1001.11 1000.87 1000.71 1000.64 1000.66 1000.76 1000.91 1001.08 1001.24 1001.37 1001.46 1001.51 1001.53 1001.55 1001.58 1001.66 1001.80 1002.02 1002.33 1002.73 1003.22 1003.79 1004.41 1005.09 1005.79 1006.49 1007.18 1007.82 1008.42 1008.94 1009.39 1009.76 1010.07 1010.34 1010.57 1010.79 1011.02 1011.28 1011.58 1011.90
1002.05 1001.99 1001.82 1001.58 1001.31 1001.08 1000.92 1000.85 1000.88 1000.99 1001.16 1001.36 1001.55 1001.70 1001.79 1001.83 1001.81 1001.76 1001.70 1001.65 1001.66 1001.75 1001.92 1002.20 1002.59 1003.08 1003.67 1004.33 1005.04 1005.78 1006.52 1007.24 1007.90 1008.50 1009.02 1009.46 1009.83 1010.13 1010.39 1010.62 1010.84 1011.08 1011.33 1011.62
1001.89 1001.80 1001.64 1001.43 1001.23 1001.07 1000.99 1001.00 1001.11 1001.30 1001.55 1001.80 1002.04 1002.23 1002.34 1002.36 1002.31 1002.19 1002.04 1001.88 1001.75 1001.68 1001.70 1001.83 1002.08 1002.45 1002.94 1003.53 1004.20 1004.93 1005.68 1006.43 1007.15 1007.82 1008.42 1008.94 1009.38 1009.74 1010.06 1010.33 1010.57 1010.81 1011.06 1011.33
1001.38 1001.26 1001.12 1000.99 1000.90 1000.88 1000.95 1001.12 1001.38 1001.70 1002.06 1002.42 1002.73 1002.97 1003.10 1003.13 1003.05 1002.87 1002.63 1002.35 1002.08 1001.86 1001.71 1001.66 1001.73 1001.94 1002.28 1002.75 1003.33 1003.99 1004.71 1005.45 1006.19 1006.91 1007.57 1008.17 1008.69 1009.15 1009.54 1009.87 1010.18 1010.46 1010.73 1011.00
1000.69 1000.56 1000.46 1000.43 1000.49 1000.64 1000.91 1001.27 1001.72 1002.21 1002.72 1003.20 1003.61 1003.91 1004.08 1004.12 1004.01 1003.79 1003.47 1003.09 1002.69 1002.30 1001.98 1001.75 1001.63 1001.64 1001.80 1002.10 1002.53 1003.07 1003.71 1004.40 1005.12 1005.85 1006.55 1007.21 1007.82 1008.36 1008.84 1009.27 1009.65 1009.99 1010.32 1010.63
1000.05 999.91 999.87 999.95 1000.16 1000.51 1000.97 1001.54 1002.19 1002.87 1003.53 1004.14 1004.65 1005.02 1005.24 1005.29 1005.18 1004.92 1004.54 1004.07 1003.56 1003.04 1002.56 1002.15 1001.84 1001.65 1001.61 1001.72 1001.97 1002.36 1002.86 1003.46 1004.12 1004.82 1005.53 1006.22 1006.88 1007.50 1008.06 1008.57 1009.04 1009.47 1009.87 1010.25
999.67 999.53 999.55 999.72 1000.07 1000.58 1001.23 1001.99 1002.81 1003.65 1004.46 1005.18 1005.78 1006.22 1006.48 1006.56 1006.46 1006.19 1005.78 1005.26 1004.68 1004.07 1003.46 1002.91 1002.44 1002.08 1001.84 1001.76 1001.83 1002.04 1002.38 1002.85 1003.40 1004.03 1004.70 1005.39 1006.07 1006.72 1007.35 1007.93 1008.48 1008.98 1009.46 1009.90
999.64 999.51 999.56 999.82 1000.27 1000.91 1001.70 1002.60 1003.55 1004.51 1005.43 1006.24 1006.91 1007.41 1007.72 1007.83 1007.76 1007.51 1007.11 1006.59 1005.98 1005.33 1004.67 1004.03 1003.45 1002.95 1002.57 1002.32 1002.21 1002.25 1002.43 1002.74 1003.17 1003.69 1004.28 1004.92 1005.58 1006.24 1006.88 1007.50 1008.09 1008.65 1009.18 1009.68
999.96 999.83 999.91 1000.21 1000.73 1001.44 1002.32 1003.30 1004.34 1005.37 1006.35 1007.22 1007.93 1008.48 1008.83 1008.99 1008.96 1008.77 1008.42 1007.95 1007.38 1006.75 1006.10 1005.44 1004.82 1004.25 1003.78 1003.41 1003.17 1003.06 1003.09 1003.25 1003.54 1003.94 1004.42 1004.97 1005.57 1006.19 1006.81 1007.42 1008.02 1008.60 1009.15 1009.67
1000.55 1000.42 1000.51 1000.82 1001.36 1002.10 1003.01 1004.02 1005.08 1006.14 1007.13 1008.02 1008.77 1009.34 1009.74 1009.95 1009.99 1009.88 1009.62 1009.25 1008.78 1008.23 1007.65 1007.05 1006.45 1005.88 1005.38 1004.95 1004.62 1004.41 1004.32 1004.36 1004.52 1004.79 1005.15 1005.60 1006.10 1006.64 1007.21 1007.77 1008.34 1008.88 1009.41 1009.92
1001.28 1001.15 1001.24 1001.54 1002.07 1002.80 1003.69 1004.68 1005.72 1006.76 1007.74 1008.62 1009.37 1009.96 1010.39 1010.67 1010.79 1010.78 1010.64 1010.39 1010.06 1009.65 1009.19 1008.69 1008.18 1007.67 1007.19 1006.77 1006.41 1006.15 1005.98 1005.92 1005.98 1006.14 1006.39 1006.73 1007.13 1007.58 1008.05 1008.54 1009.03 1009.51 1009.98 1010.43
1002.07 1001.94 1002.02 1002.31 1002.81 1003.51 1004.35 1005.29 1006.27 1007.26 1008.19 1009.03 1009.76 1010.36 1010.82 1011.15 1011.36 1011.45 1011.43 1011.33 1011.14 1010.89 1010.58 1010.22 1009.83 1009.42 1009.02 1008.63 1008.30 1008.03 1007.83 1007.72 1007.71 1007.79 1007.95 1008.20 1008.50 1008.85 1009.22 1009.61 1010.01 1010.40 1010.78 1011.15
1002.87 1002.76 1002.84 1003.12 1003.59 1004.24 1005.02 1005.88 1006.80 1007.70 1008.56 1009.35 1010.04 1010.62 1011.10 1011.46 1011.73 1011.91 1012.00 1012.03 1011.98 1011.87 1011.71 1011.49 1011.23 1010.94 1010.63 1010.33 1010.04 1009.80 1009.61 1009.49 1009.45 1009.48 1009.59 1009.76 1009.98 1010.24 1010.53 1010.83 1011.13 1011.42 1011.70 1011.97
1003.73 1003.66 1003.76 1004.04 1004.48 1005.08 1005.80 1006.58 1007.40 1008.22 1008.99 1009.70 1010.33 1010.87 1011.32 1011.69 1011.99 1012.22 1012.39 1012.51 1012.57 1012.57 1012.53 1012.43 1012.28 1012.09 1011.88 1011.66 1011.44 1011.24 1011.09 1010.98 1010.94 1010.96 1011.04 1011.17 1011.35 1011.55 1011.77 1011.99 1012.20 1012.40 1012.59 1012.76
1004.72 1004.71 1004.85 1005.14 1005.58 1006.13 1006.78 1007.48 1008.20 1008.91 1009.58 1010.19 1010.73 1011.20 1011.60 1011.95 1012.24 1012.48 1012.68 1012.83 1012.95 1013.02 1013.05 1013.03 1012.96 1012.85 1012.71 1012.55 1012.39 1012.25 1012.13 1012.06 1012.03 1012.06 1012.14 1012.26 1012.42 1012.58 1012.76 1012.93 1013.08 1013.22 1013.33 1013.43
1005.89 1005.97 1006.17 1006.49 1006.92 1007.44 1008.02 1008.63 1009.24 1009.84 1010.38 1010.88 1011.31 1011.69 1012.01 1012.29 1012.53 1012.74 1012.92 1013.08 1013.21 1013.30 1013.35 1013.36 1013.33 1013.26 1013.16 1013.05 1012.93 1012.82 1012.74 1012.70 1012.70 1012.75 1012.84 1012.97 1013.12 1013.28 1013.44 1013.58 1013.71 1013.81 1013.88 1013.93
1007.24 1007.43 1007.69 1008.05 1008.48 1008.96 1009.47 1009.99 1010.49 1010.96 1011.37 1011.74 1012.05 1012.32 1012.54 1012.73 1012.90 1013.06 1013.19 1013.31 1013.41 1013.49 1013.53 1013.54 1013.51 1013.45 1013.36 1013.26 1013.16 1013.08 1013.02 1013.00 1013.02 1013.08 1013.19 1013.33 1013.49 1013.66 1013.82 1013.97 1014.09 1014.18 1014.25 1014.28
1008.70 1008.98 1009.31 1009.70 1010.13 1010.57 1011.01 1011.43 1011.81 1012.15 1012.44 1012.68 1012.87 1013.02 1013.15 1013.25 1013.35 1013.44 1013.52 1013.59 1013.65 1013.69 1013.70 1013.69 1013.64 1013.57 1013.48 1013.38 1013.28 1013.19 1013.14 1013.12 1013.15 1013.22 1013.34 1013.49 1013.66 1013.84 1014.02 1014.19 1014.33 1014.44 1014.51 1014.56
1010.09 1010.46 1010.86 1011.27 1011.68 1012.07 1012.44 1012.77 1013.04 1013.27 1013.44 1013.56 1013.65 1013.71 1013.76 1013.79 1013.83 1013.86 1013.90 1013.94 1013.97 1013.98 1013.97 1013.93 1013.87 1013.78 1013.67 1013.55 1013.44 1013.34 1013.28 1013.25 1013.27 1013.34 1013.46 1013.61 1013.80 1014.00 1014.20 1014.39 1014.56 1014.69 1014.80 1014.87
1011.26 1011.70 1012.13 1012.54 1012.93 1013.28 1013.58 1013.82 1014.00 1014.14 1014.22 1014.27 1014.28 1014.29 1014.28 1014.29 1014.30 1014.32 1014.34 1014.37 1014.39 1014.40 1014.38 1014.33 1014.26 1014.16 1014.04 1013.91 1013.78 1013.67 1013.59 1013.55 1013.55 1013.61 1013.72 1013.87 1014.06 1014.27 1014.49 1014.70 1014.90 1015.08 1015.22 1015.33
1012.06 1012.53 1012.98 1013.38 1013.74 1014.04 1014.28 1014.46 1014.59 1014.67 1014.70 1014.71 1014.71 1014.70 1014.70 1014.72 1014.75 1014.79 1014.84 1014.89 1014.93 1014.96 1014.96 1014.92 1014.86 1014.76 1014.64 1014.51 1014.37 1014.25 1014.15 1014.10 1014.08 1014.13 1014.22 1014.37 1014.55 1014.77 1015.00 1015.24 1015.47 1015.67 1015.85 1016.00
1012.43 1012.91 1013.35 1013.74 1014.07 1014.34 1014.54 1014.69 1014.80 1014.86 1014.90 1014.93 1014.95 1014.99 1015.03 1015.10 1015.19 1015.29 1015.40 1015.50 1015.59 1015.66 1015.69 1015.68 1015.64 1015.56 1015.45 1015.32 1015.19 1015.06 1014.96 1014.89 1014.87 1014.90 1014.99 1015.13 1015.31 1015.53 1015.77 1016.02 1016.27 1016.50 1016.70 1016.87
Thickness
5757 5761 5761 5759 5763 5769 5768 5770 5764 5765 5763 5765 5768 5774 5781 5787 5793 5792 5789 5786 5784 5781 5778 5776 5775 5772 5769 5765 5762 5759 5754 5750 5747 5746 5744 5742 5740 5739 5738 5737 5737 5736 5735 5735
5745 5753 5754 5751 5756 5762 5766 5774 5775 5769 5761 5773 5777 5775 5777 5783 5786 5784 5783 5783 5782 5779 5776 5773 5772 5771 5769 5766 5764 5761 5755 5752 5750 5748 5745 5742 5741 5739 5738 5737 5737 5736 5734 5733
5730 5741 5741 5734 5751 5758 5763 5775 5774 5760 5761 5768 5766 5766 5770 5776 5780 5780 5781 5781 5779 5777 5775 5772 5771 5771 5767 5766 5764 5760 5756 5754 5752 5749 5746 5744 5742 5740 5738 5737 5736 5735 5734 5733
5727 5725 5710 5741 5767 5766 5762 5768 5773 5767 5765 5764 5763 5765 5770 5775 5775 5776 5778 5778 5778 5776 5774 5773 5772 5770 5768 5767 5764 5760 5757 5755 5753 5750 5747 5745 5743 5741 5739 5737 5735 5734 5733 5732
5719 5715 5720 5741 5756 5759 5754 5750 5761 5758 5758 5760 5763 5762 5762 5768 5772 5773 5774 5776 5776 5777 5775 5773 5771 5770 5767 5765 5762 5759 5757 5755 5754 5751 5748 5745 5742 5741 5739 5737 5735 5733 5732 5730
5718 5706 5701 5721 5744 5758 5752 5730 5747 5750 5748 5750 5750 5736 5740 5757 5764 5768 5769 5772 5773 5774 5773 5769 5768 5768 5765 5762 5760 5757 5757 5756 5756 5753 5749 5745 5743 5741 5739 5736 5734 5732 5731 5729
5710 5703 5703 5720 5734 5741 5717 5714 5739 5743 5741 5741 5736 5737 5744 5753 5757 5760 5762 5765 5768 5768 5766 5765 5766 5764 5760 5759 5758 5758 5757 5756 5755 5752 5748 5745 5742 5740 5737 5734 5731 5729 5728 5727
5705 5696 5691 5718 5723 5714 5713 5728 5733 5734 5735 5734 5734 5739 5743 5745 5748 5751 5754 5757 5760 5759 5759 5761 5762 5760 5756 5755 5757 5757 5755 5753 5751 5748 5746 5744 5739 5736 5734 5731 5727 5725 5723 5722
5703 5696 5705 5715 5713 5716 5723 5721 5723 5724 5726 5729 5728 5730 5733 5736 5739 5742 5745 5749 5751 5752 5751 5753 5755 5755 5752 5752 5754 5753 5751 5748 5746 5745 5742 5741 5737 5732 5729 5726 5724 5722 5720 5718
5694 5694 5701 5705 5708 5712 5714 5714 5718 5719 5720 5721 5721 5722 5724 5727 5729 5731 5735 5739 5742 5743 5742 5744 5748 5749 5749 5750 5750 5747 5744 5743 5741 5739 5736 5735 5733 5730 5727 5724 5721 5720 5718 5716
5686 5689 5693 5694 5699 5704 5707 5709 5711 5712 5712 5714 5714 5714 5717 5718 5719 5721 5724 5728 5732 5733 5733 5736 5740 5742 5743 5745 5744 5741 5739 5737 5735 5733 5730 5728 5726 5722 5722 5721 5719 5717 5716 5714
5676 5684 5685 5683 5692 5696 5698 5699 5700 5700 5701 5706 5706 5706 5708 5709 5711 5713 5715 5719 5722 5724 5726 5729 5732 5734 5736 5737 5737 5734 5731 5730 5729 5727 5725 5721 5717 5713 5710 5711 5710 5709 5709 5707
5680 5685 5684 5684 5685 5688 5689 5691 5693 5693 5693 5693 5696 5697 5697 5698 5700 5703 5706 5709 5712 5715 5718 5721 5723 5725 5728 5730 5730 5727 5725 5724 5723 5722 5719 5716 5713 5709 5704 5699 5698 5697 5697 5696
5676 5677 5673 5674 5675 5678 5681 5684 5685 5685 5684 5684 5685 5686 5687 5688 5690 5692 5695 5699 5703 5706 5708 5711 5714 5716 5719 5721 5721 5720 5719 5718 5717 5716 5714 5711 5709 5706 5703 5698 5693 5688 5684 5683
5666 5667 5665 5666 5668 5669 5672 5673 5672 5672 5672 5672 5673 5674 5674 5675 5677 5681 5685 5690 5693 5695 5697 5700 5702 5704 5708 5710 5711 5710 5710 5710 5710 5709 5707 5706 5704 5701 5697 5693 5688 5683 5678 5672
5656 5658 5658 5657 5657 5658 5660 5660 5659 5659 5660 5660 5661 5662 5664 5665 5666 5670 5674 5678 5680 5681 5684 5687 5689 5692 5696 5698 5700 5700 5700 5700 5700 5700 5699 5697 5695 5692 5688 5684 5680 5676 5671 5666
5645 5644 5645 5646 5645 5647 5648 5648 5648 5648 5649 5650 5650 5652 5654 5655 5656 5657 5661 5664 5667 5669 5672 5675 5677 5681 5684 5687 5688 5690 5690 5689 5688 5689 5687 5685 5683 5680 5676 5672 5668 5665 5660 5656
5640 5640 5641 5640 5638 5637 5637 5637 5637 5638 5639 5640 5641 5643 5643 5643 5644 5646 5650 5653 5655 5657 5659 5661 5665 5668 5671 5673 5675 5677 5678 5678 5677 5675 5673 5671 5669 5668 5664 5660 5657 5652 5649 5646
5633 5633 5633 5632 5631 5630 5629 5628 5628 5629 5630 5631 5632 5632 5633 5634 5635 5637 5640 5641 5642 5642 5644 5648 5650 5654 5656 5658 5660 5662 5663 5663 5662 5660 5659 5655 5653 5652 5650 5647 5644 5641 5637 5633
5624 5624 5623 5622 5622 5621 5620 5620 5620 5620 5621 5622 5623 5623 5623 5625 5626 5627 5628 5629 5628 5629 5632 5635 5638 5640 5641 5643 5645 5647 5648 5648 5646 5645 5643 5641 5639 5636 5635 5633 5630 5627 5623 5620
5614 5614 5614 5613 5613 5613 5613 5613 5612 5612 5612 5613 5613 5613 5614 5615 5617 5618 5619 5617 5616 5619 5622 5623 5625 5626 5628 5629 5632 5633 5633 5632 5631 5629 5627 5625 5623 5622 5619 5617 5614 5611 5609 5605
5604 5605 5604 5604 5603 5603 5604 5604 5604 5605 5605 5605 5606 5606 5607 5607 5608 5608 5608 5608 5608 5609 5613 5613 5613 5612 5614 5618 5620 5620 5619 5618 5617 5615 5613 5611 5609 5606 5604 5602 5599 5597 5594 5591
5596 5596 5596 5595 5596 5596 5597 5597 5598 5598 5598 5598 5599 5600 5601 5601 5602 5601 5599 5599 5601 5599 5601 5601 5600 5601 5603 5608 5608 5607 5606 5604 5602 5601 5599 5597 5595 5592 5589 5586 5584 5581 5578 5575
5588 5588 5588 5589 5590 5589 5588 5589 5590 5591 5592 5592 5593 5594 5595 5594 5593 5593 5591 5589 5590 5591 5591 5589 5590 5592 5594 5596 5595 5593 5592 5590 5588 5586 5585 5583 5580 5577 5574 5571 5568 5565 5562 5559
5579 5580 5581 5581 5581 5581 5581 5581 5583 5584 5585 5585 5586 5587 5588 5587 5586 5585 5584 5583 5582 5584 5584 5582 5581 5582 5585 5584 5582 5580 5577 5575 5573 5571 5569 5567 5565 5562 5558 5555 5552 5549 5546 5543
5572 5571 5571 5572 5573 5574 5576 5576 5576 5576 5576 5576 5576 5577 5578 5578 5578 5577 5577 5576 5576 5575 5576 5575 5574 5573 5572 5570 5568 5565 5564 5562 5561 5558 5555 5553 5550 5547 5543 5540 5537 5534 5530 5527
5565 5564 5564 5565 5565 5567 5568 5568 5567 5566 5566 5566 5566 5568 5568 5569 5569 5568 5568 5568 5567 5567 5566 5565 5564 5562 5560 5557 5555 5553 5551 5548 5546 5544 5541 5538 5535 5531 5528 5525 5522 5518 5514 5511